Simultaneous Nadir Overpasses (SNOs) Predictions

Prediction of SNOs between AQUA and METOP-B Satellite Orbit:

Table of predicted SNOs for the next 14.0 days since TLE Epoch: 10/31/2015
Index Date (AQUA) Time (AQUA) Lat,Lon (AQUA) SZA (AQUA ) Date (METOP-B) Time (METOP-B) Lat,Lon (METOP-B) SZA (METOP-B ) Distance(km) Time Diff (sec)
1 10/31/2015 15:06:08 73.70, -52.06 87.75 10/31/2015 15:05:15 73.72, -52.14 87.77 2.99 53
2 10/31/2015 15:55:35 -73.79, 115.39 92.16 10/31/2015 15:55:55 -73.79, 115.37 92.15 0.62 20
3 10/31/2015 16:45:16 74.47, -78.55 88.56 10/31/2015 16:46:21 74.48, -75.58 88.55 88.57 65
4 11/03/2015 10:40:24 73.75, 14.28 88.69 11/03/2015 10:39:35 73.74, 14.34 88.69 1.81 49
5 11/03/2015 11:29:51 -73.83,-178.27 91.22 11/03/2015 11:30:15 -73.82,-178.15 91.23 3.67 24
6 11/06/2015 06:14:38 73.71, 80.79 89.52 11/06/2015 06:13:56 73.71, 80.68 89.52 3.38 42
7 11/06/2015 07:04:05 -73.80,-111.75 90.39 11/06/2015 07:04:36 -73.80,-111.80 90.39 1.64 31
8 11/09/2015 01:48:52 73.76, 147.12 90.40 11/09/2015 01:48:15 73.73, 147.12 90.37 3.63 37
9 11/09/2015 02:38:19 -73.84, -45.40 89.52 11/09/2015 02:38:55 -73.82, -45.35 89.54 3.06 36
10 11/11/2015 21:23:05 73.73,-146.37 91.16 11/11/2015 21:22:35 73.74,-146.45 91.17 2.26 30
11 11/11/2015 22:12:32 -73.81, 21.11 88.76 11/11/2015 22:13:15 -73.83, 21.10 88.74 2.62 43




NCC Satellite Simultaneous Nadir Overpasses (SNOs) Prediction Service
